Flag for Russia Weather past 2 weeks in Kaliningrad, Russia

Now
41 °F

Sprinkles. Mostly cloudy.


Feels Like: 32 °F
Forecast: 39 / 42 °F
Wind: 17 mph from Northwest

Location: Kaliningrad/Khrabrovo Airport

Current Time: Mar 31, 2015 at 4:49:32 AM

Latest Report: Mar 31, 2015 at 4:00 AM


Visibility: 4 mi

Pressure: 29.30 "Hg

Humidity: 81%

Dew point: 36 °F

Location of KaliningradLocation

Historic Weather in Kaliningrad — Graph

°F

Kaliningrad temperature yesterday

Maximum temperature yesterday: 48 °F (at 9:30 AM)
Minimum temperature yesterday: 41 °F (at 6:00 PM)
Average temperature yesterday: 44 °F

Past Weeks' High & Low Weather Summary

 TemperatureHumidityPressure
High61 °F (Mar 26, 2:00 PM)100% (Mar 21, 7:00 AM)30.80 "Hg (Mar 21, 7:00 AM)
Low25 °F (Mar 19, 4:30 AM)21% (Mar 17, 3:00 PM)28.88 "Hg (Mar 30, 8:30 AM)
Average41 °F71%30.05 "Hg
* Reported Mar 16 3:00 AM — Mar 31 3:00 AM, Kaliningrad, Weather by CustomWeather, © 2015

Note: Actual official high and low records may vary slightly from our data, if they occured in-between our weather recording intervals... More about our weather records

Advertising

Kaliningrad weather history for previous 24 hours

 ConditionsComfort  
Time TempWeatherWind HumidityBarometerVisibility
3:00 AM
Tue, Mar 31
41 °FSprinkles. Mostly cloudy.17 mph87%29.27 "Hg4 mi
2:30 AM41 °FSprinkles. Mostly cloudy.20 mph87%29.27 "Hg4 mi
2:00 AM41 °FSprinkles. Mostly cloudy.20 mph87%29.27 "Hg3 mi
1:30 AM41 °FSprinkles. Mostly cloudy.20 mph87%29.24 "Hg4 mi
1:00 AM41 °FSprinkles. Mostly cloudy.22 mph87%29.24 "Hg5 mi
12:30 AM41 °FSprinkles. Mostly cloudy.20 mph87%29.21 "Hg4 mi
12:00 AM41 °FSprinkles. Mostly cloudy.22 mph87%29.21 "Hg4 mi
11:00 PM
Mon, Mar 30
41 °FMostly cloudy.24 mph87%29.15 "HgN/A
10:30 PM41 °FSprinkles. Mostly cloudy.24 mph87%29.15 "Hg4 mi
10:00 PM41 °FSprinkles. Mostly cloudy.24 mph87%29.15 "Hg3 mi
9:30 PM41 °FSprinkles. Mostly cloudy.24 mph87%29.12 "Hg3 mi
9:00 PM41 °FSprinkles. Mostly cloudy.26 mph87%29.12 "Hg4 mi
8:30 PM41 °FSprinkles. Mostly cloudy.26 mph87%29.09 "Hg3 mi
8:00 PM41 °FSprinkles. Mostly cloudy.29 mph87%29.06 "Hg3 mi
7:30 PM41 °FSprinkles. Mostly cloudy.31 mph87%29.06 "Hg3 mi
7:00 PM41 °FSprinkles. Mostly cloudy.31 mph87%29.03 "Hg4 mi
6:30 PM41 °FSprinkles. Mostly cloudy.31 mph87%29.03 "Hg5 mi
6:00 PM41 °FSprinkles. Mostly cloudy.31 mph87%29.00 "Hg5 mi
5:30 PM43 °FSprinkles. Mostly cloudy.31 mph81%29.00 "Hg5 mi
5:00 PM43 °FSprinkles. Mostly cloudy.33 mph81%28.97 "Hg5 mi
4:30 PM43 °FSprinkles. Mostly cloudy.33 mph81%28.97 "Hg5 mi
4:00 PM43 °FSprinkles. Mostly cloudy.31 mph81%28.97 "Hg5 mi
3:30 PM43 °FSprinkles. Mostly cloudy.29 mph87%28.94 "Hg5 mi
3:00 PM43 °FSprinkles. Mostly cloudy.29 mph87%28.94 "Hg4 mi
2:30 PM43 °FSprinkles. Mostly cloudy.33 mph87%28.94 "Hg4 mi
2:00 PM45 °FSprinkles. Mostly cloudy.29 mph81%28.91 "Hg4 mi
1:30 PM43 °FSprinkles. Mostly cloudy.26 mph87%28.91 "Hg4 mi
1:00 PM43 °FSprinkles. Mostly cloudy.24 mph87%28.91 "Hg3 mi
12:30 PM43 °FSprinkles. More clouds than sun.24 mph87%28.91 "Hg2 mi
12:00 PM43 °FSprinkles. Mostly cloudy.17 mph87%28.88 "Hg5 mi
11:30 AM43 °FSprinkles. Mostly cloudy.24 mph87%28.88 "Hg5 mi
11:00 AM43 °FSprinkles. Partly sunny.20 mph87%28.88 "Hg5 mi
10:30 AM45 °FPartly sunny.22 mph81%28.88 "HgN/A
10:00 AM45 °FMostly cloudy.20 mph81%28.88 "HgN/A
9:30 AM48 °FSprinkles. Mostly cloudy.13 mph87%28.88 "Hg5 mi
9:00 AM46 °FLight rain. Mostly cloudy.15 mph93%28.88 "Hg5 mi
8:30 AM46 °FLight rain. Mostly cloudy.17 mph93%28.88 "Hg5 mi
8:00 AM46 °FLight rain. Mostly cloudy.15 mph93%28.91 "Hg4 mi
7:30 AM46 °FLight rain. Mostly cloudy.15 mph93%28.91 "Hg4 mi
7:00 AM46 °FLight rain. Fog.15 mph87%28.94 "Hg3 mi
6:30 AM45 °FLight rain. Fog.15 mph93%28.94 "Hg3 mi
6:00 AM45 °FLight rain. Fog.15 mph93%28.97 "Hg2 mi
5:30 AM45 °FLight rain. Fog.15 mph93%29.00 "Hg3 mi
5:00 AM45 °FLight rain. Fog.13 mph93%29.03 "Hg3 mi
4:30 AM45 °FLight rain. Fog.13 mph93%29.06 "Hg2 mi
4:00 AM45 °FLight rain. Fog.15 mph93%29.06 "Hg2 mi
Weather by CustomWeather, © 2015

See weather overviewHow to use our weather pages